This demonstration page uses our WeatherBlox Daily Observations layout. Learn more.

Left ArrowRight Arrow

Hourly Observations for September 26, 2021

Temp ( °F °C ) Dew Point ( °F °C ) Humidity (%) Winds ( mph kmh ) Pressure ( in mb ) Visibility ( mi km ) Precip ( " mm )
12:15 am 00:15 Clear 66 19 49 9.5 54 54 S 18 30 29.83 1010 10 16 N/A
12:35 am 00:35 Clear 65 18.6 49 9.5 56 56 S 15 24 29.83 1010 10 16 N/A
12:55 am 00:55 Clear 65 18.3 49 9.6 57 57 S 14 22 29.84 1010 10 16 N/A
1:15 am 01:15 Clear 64 17.7 49 9.6 59 59 S 10 17 29.83 1010 10 16 N/A
1:35 am 01:35 Clear 64 17.5 49 9.5 60 60 S 13 20 29.83 1010 10 16 N/A
1:55 am 01:55 Clear 63 17 49 9.5 62 62 S 7 11 29.84 1010 10 16 N/A
2:15 am 02:15 Clear 62 16.8 49 9.5 62 62 S 9 15 29.83 1010 10 16 N/A
2:35 am 02:35 Clear 61 16.3 49 9.5 64 64 S 9 15 29.82 1010 10 16 N/A
2:55 am 02:55 Clear 60 15.6 49 9.3 66 66 S 6 9 29.83 1010 10 16 N/A
3:15 am 03:15 Clear 59 15.1 49 9.2 68 68 SSE 3 6 29.83 1010 10 16 N/A
3:35 am 03:35 Clear 58 14.5 48 9 70 70 SSE 5 7 29.82 1010 10 16 N/A
3:55 am 03:55 Clear 59 15.1 48 9 67 67 SSE 5 7 29.81 1009 10 16 N/A
4:15 am 04:15 Clear 57 13.8 48 8.7 72 72 SSE 3 6 29.82 1010 10 16 N/A
4:35 am 04:35 Clear 54 12.1 47 8.1 77 77 N N/A 29.84 1011 10 16 N/A
4:55 am 04:55 Clear 50 10 44 6.7 80 80 E 3 6 29.85 1011 10 16 N/A
5:15 am 05:15 Clear 55 12.6 46 7.7 72 72 N N/A 29.83 1010 10 16 N/A
5:35 am 05:35 Clear 49 9.3 45 7.3 87 87 N N/A 29.86 1011 10 16 N/A
5:55 am 05:55 Clear 48 8.9 46 7.5 91 91 N 3 6 29.86 1011 10 16 N/A
6:15 am 06:15 Clear 47 8.5 45 7.4 93 93 NNE 5 7 29.86 1011 10 16 N/A
6:35 am 06:35 Clear 47 8.3 45 7.1 92 92 N N/A 29.86 1011 10 16 N/A
6:55 am 06:55 Clear 48 8.9 46 7.6 92 92 N N/A 29.85 1011 10 16 N/A
7:15 am 07:15 Clear 46 7.5 44 6.4 93 93 WNW 3 6 29.86 1011 10 16 N/A
7:35 am 07:35 Sunny 47 8.2 44 6.9 92 92 N N/A 29.86 1011 10 16 N/A
7:55 am 07:55 Sunny 46 7.6 44 6.6 93 93 W 5 7 29.86 1011 10 16 N/A
8:15 am 08:15 Sunny 49 9.4 47 8.3 93 93 N N/A 29.85 1011 10 16 N/A
8:35 am 08:35 Sunny 52 11.2 49 9.2 88 88 N N/A 29.83 1010 10 16 N/A
8:55 am 08:55 Sunny 55 12.9 49 9.6 81 81 N N/A 29.80 1009 10 16 N/A
9:15 am 09:15 Sunny 58 14.7 50 10.2 75 75 WSW 3 6 29.80 1009 10 16 N/A
9:35 am 09:35 Sunny 62 16.4 51 10.4 68 68 N N/A 29.78 1009 10 16 N/A
9:55 am 09:55 Sunny 65 18.5 52 11 62 62 N N/A 29.77 1008 10 16 N/A
10:15 am 10:15 Sunny 69 20.3 52 11.1 56 56 N N/A 29.75 1007 10 16 N/A
10:35 am 10:35 Sunny 71 21.8 52 11 50 50 N N/A 29.75 1007 10 16 N/A
10:55 am 10:55 Sunny 74 23.6 53 11.4 46 46 N N/A 29.72 1007 10 16 N/A
11:15 am 11:15 Sunny 77 24.9 54 12.1 45 45 N N/A 29.70 1006 10 16 N/A
11:35 am 11:35 Sunny 80 26.8 54 12 40 40 N N/A 29.69 1005 10 16 N/A
11:55 am 11:55 Sunny 83 28.3 54 12.3 37 37 WSW 3 6 29.67 1005 10 16 N/A
12:15 pm 12:15 Sunny 86 29.8 54 12.2 34 34 SW 3 6 29.65 1004 10 16 N/A
12:35 pm 12:35 Sunny 89 31.5 49 9.3 25 25 SW 7 11 29.64 1004 10 16 N/A
12:55 pm 12:55 Sunny 90 32.2 48 8.8 23 23 WSW 5 7 29.62 1003 10 16 N/A
1:15 pm 13:15 Sunny 91 32.6 49 9.6 24 24 S 6 9 29.61 1003 10 16 N/A
1:35 pm 13:35 Sunny 93 33.7 48 8.7 21 21 SW 8 13 29.60 1002 10 16 N/A
1:55 pm 13:55 Sunny 93 33.9 46 7.5 19 19 SSW 8 13 29.59 1002 10 16 N/A
2:15 pm 14:15 Sunny 93 34.1 44 6.8 18 18 SSW 10 17 29.58 1002 10 16 N/A
2:35 pm 14:35 Sunny 94 34.6 42 5.4 16 16 WSW 7 11 29.57 1001 10 16 N/A
2:55 pm 14:55 Sunny 95 35.1 44 6.6 17 17 WSW 14 22 29.56 1001 10 16 N/A
3:15 pm 15:15 Sunny 95 34.9 43 6.1 17 17 WSW 8 13 29.55 1001 10 16 N/A
3:35 pm 15:35 Sunny 96 35.4 42 5.3 15 15 W 8 13 29.55 1001 10 16 N/A
3:55 pm 15:55 Sunny 96 35.5 42 5.4 15 15 WSW 12 19 29.55 1001 10 16 N/A
4:15 pm 16:15 Sunny 97 35.9 41 5 15 15 WSW 9 15 29.54 1000 10 16 N/A
4:35 pm 16:35 Sunny 96 35.8 38 3.4 13 13 W 8 13 29.55 1001 10 16 N/A
4:55 pm 16:55 Sunny 96 35.4 38 3.2 13 13 W 10 17 29.54 1000 10 16 N/A
5:15 pm 17:15 Sunny 95 35.2 40 4.5 15 15 W 8 13 29.54 1000 10 16 N/A
5:35 pm 17:35 Sunny 94 34.7 42 5.3 16 16 W 7 11 29.54 1000 10 16 N/A
5:55 pm 17:55 Sunny 93 33.9 45 7.2 19 19 WSW 5 7 29.55 1001 10 16 N/A
6:15 pm 18:15 Sunny 91 33 47 8.4 22 22 W 5 7 29.56 1001 10 16 N/A
6:35 pm 18:35 Sunny 89 31.4 53 11.9 30 30 WSW 3 6 29.57 1001 10 16 N/A
6:55 pm 18:55 Sunny 84 28.8 49 9.7 30 30 NNW 6 9 29.60 1002 10 16 N/A
7:15 pm 19:15 Sunny 80 26.8 50 10.1 35 35 N 6 9 29.62 1003 10 16 N/A
7:35 pm 19:35 Clear 78 25.4 50 10 38 38 N 3 6 29.63 1003 10 16 N/A
7:55 pm 19:55 Clear 71 21.7 57 14.1 62 62 N N/A 29.67 1005 7 11 N/A
8:15 pm 20:15 Clear 72 22.2 52 11.1 50 50 N N/A 29.66 1005 10 16 N/A
8:35 pm 20:35 Clear 68 19.8 52 11.2 58 58 N N/A 29.69 1006 10 16 N/A
8:55 pm 20:55 Clear 64 18 51 10.7 63 63 N N/A 29.71 1006 10 16 N/A
9:15 pm 21:15 Clear 64 17.5 51 10.5 64 64 WNW 3 6 29.72 1007 10 16 N/A
9:35 pm 21:35 Clear 61 16.3 51 10.4 68 68 NW 3 6 29.74 1007 10 16 N/A
9:55 pm 21:55 Clear 59 15 51 10.3 74 74 WNW 5 7 29.77 1008 10 16 N/A
10:15 pm 22:15 Clear 61 16 51 10.3 69 69 WNW 3 6 29.76 1008 10 16 N/A
10:35 pm 22:35 Clear 57 14 50 10.2 78 78 NW 5 7 29.78 1008 7 11 N/A
10:55 pm 22:55 Clear 57 13.9 51 10.8 82 82 WNW 7 11 29.79 1009 10 16 N/A
11:15 pm 23:15 Clear 55 12.9 49 9.7 81 81 NW 7 11 29.79 1009 10 16 N/A
11:35 pm 23:35 Clear 57 13.8 50 10 78 78 W 5 7 29.79 1009 10 16 N/A
11:55 pm 23:55 Clear 56 13.2 49 9.5 78 78 W 7 11 29.80 1009 10 16 N/A

Powered by AerisWeather